Location: Austin
(30.3000°N, 97.7500°W)
Time: 11:52:22
(UTC-05:00)

Meteor 1-14 Rocket - Pass Details

Date: 03 April 2024
Orbit: 832 x 919 km, 81.3° (Epoch: 22 April)

Event Time Altitude Azimuth Distance (km) Brightness Sun altitude
Rises 05:15:06 0° 352° (N) 3,386 7.5 -26.2°
Reaches altitude 10° 05:17:30 10° 353° (N) 2,445 6.8 -25.7°
Maximum altitude 05:23:02 90° 42° (NE) 836 4.1 -24.6°
Drops below altitude 10° 05:28:34 10° 174° (S) 2,439 6.4 -23.5°
Sets 05:30:58 0° 174° (S) 3,377 7.2 -23.0°
